Hourly Weather Roundup
Issued by NWS Central Illinois

Home | Current Version | Previous Version | Text Only | Print | Product List | Glossary On
Versions: 1 2 3 4 5 6 7 8 9 10 11 12 13 14 15 16 17 18 19 20 21 22 23 24 25 26 27 28 29 30 31 32 33 34 35 36 37 38 39 40 41 42 43 44 45 46 47 48 49 50
000
NZUS43 KILX 050610
HWRILX

AREA WEATHER ROUNDUP
NATIONAL WEATHER SERVICE, LINCOLN IL
1200 AM CST THU MAR 05 2015


CITY           SKY/WX    TMP DP  RH WIND       PRES   REMARKS
BLOOMINGTON    MOCLDY    14   3  61 NW16      30.37R WCI  -2
6HR MIN TEMP:  14; 6HR MAX TEMP:  18;

CHAMPAIGN      CLOUDY    15   5  64 N13       30.35S WCI   1
6HR MIN TEMP:  14; 6HR MAX TEMP:  17;

DECATUR        PTCLDY    17   5  59 NW10      30.37R WCI   5
6HR MIN TEMP:  17; 6HR MAX TEMP:  19;

EFFINGHAM      CLOUDY    19   4  51 NW10      30.36R WCI   7
FLORA          CLOUDY    20   7  56 N10       30.34S WCI   8
6HR MIN TEMP:  20; 6HR MAX TEMP:  21;

GALESBURG      CLOUDY    12   4  71 NW7       30.41R WCI   2
JACKSONVILLE   PTCLDY    16   6  64 N6        30.39F WCI   7
6HR MIN TEMP:  16; 6HR MAX TEMP:  21;

LACON          CLEAR     10   0  65 NW6       30.41R WCI   0
6HR MIN TEMP:  10; 6HR MAX TEMP:  16;

LAWRENCEVILLE  CLOUDY    20   7  57 N16G23    30.33S WCI   6
6HR MIN TEMP:  20; 6HR MAX TEMP:  21;

LITCHFIELD     MOCLDY    17   8  67 N10       30.36F WCI   4
$$


CITY           SKY/WX    TMP DP  RH WIND       PRES   REMARKS
LINCOLN        PTCLDY    18   4  55 N7        30.42R WCI   8
6HR MIN TEMP:  18; 6HR MAX TEMP:  21;

MACOMB         CLOUDY    14   7  73 N12       30.44R WCI   0
MATTOON        CLOUDY    17   8  67 N13       30.33F WCI   4
6HR MIN TEMP:  17; 6HR MAX TEMP:  18;

MT CARMEL AP   CLOUDY    23   7  50 N12       30.33R WCI  12
OLNEY-NOBLE AP CLOUDY    19   9  63 N10       30.34S WCI   8
PARIS          MOCLDY    17   9  69 N7        30.35S WCI   8
6HR MIN TEMP:  17; 6HR MAX TEMP:  19;

PEORIA         PTCLDY    14   0  53 N9        30.41R WCI   2
6HR MIN TEMP:  14; 6HR MAX TEMP:  19;

PONTIAC        PTCLDY    11   4  71 NW9       30.37F WCI  -1
RANTOUL        CLOUDY    17   7  67 NW13      30.35R WCI   3
6HR MIN TEMP:  17; 6HR MAX TEMP:  19;

ROBINSON       CLOUDY    19   7  58 N14       30.36R WCI   6
6HR MIN TEMP:  19; 6HR MAX TEMP:  20;

SPRINGFIELD    PTCLDY    18   4  54 N7        30.40R WCI   9
6HR MIN TEMP:  17; 6HR MAX TEMP:  21;

TAYLORVILLE    PTCLDY    18   7  62 N10       30.38R WCI   6
$$

...REGIONAL REPORTS...


CITY           SKY/WX    TMP DP  RH WIND       PRES   REMARKS
CHICAGO O`HARE MOCLDY    10  -2  58 NW12      30.34S WCI  -5
KANKAKEE       CLOUDY    14   1  58 NW13      30.35F WCI  -1
MOLINE         MOCLDY    12   0  58 NW8       30.43R WCI   0
MOUNT VERNON   CLOUDY    19   3  49 N9        30.35R WCI   9
PITTSFIELD     PTCLDY    16   9  71 NW5       30.39F WCI   9
QUINCY         PTCLDY    14   6  70 NW5       30.38F WCI   6
ROCKFORD       MOCLDY     6  -5  60 NW9       30.39R WCI  -8
$$


CITY           SKY/WX    TMP DP  RH WIND       PRES   REMARKS
BURLINGTON     CLOUDY    15   5  64 N9        30.42R WCI   3
CEDAR RAPIDS   PTCLDY     0  -4  83 NW7       30.43R WCI -13
DES MOINES     FLURRIES  11   2  67 N7        30.46R WCI   0
KIRKSVILLE     NOT AVBL
OTTUMWA        CLEAR     11   3  70 N9        30.43R WCI  -2
ST LOUIS       MOCLDY    22   4  46 N5        30.38F WCI  16
$$


CITY           SKY/WX    TMP DP  RH WIND       PRES   REMARKS
TERRE HAUTE    CLOUDY    18   4  54 N17       30.33S WCI   3
EVANSVILLE     CLOUDY    21   8  57 N10       30.32R WCI  10
INDIANAPOLIS   NOT AVBL
LAFAYETTE      MOCLDY    15   3  59 N13       30.31F WCI   1
MADISON        CLEAR      4  -6  63 NW3       30.37R
MILWAUKEE      FAIR       9  -9  44 NW8       30.35S WCI  -3
$$




USA.gov is the U.S. government's official web portal to all federal, state and local government web resources and services.